timestamp,wind_dir_avg,wind_spd_avg,wind_spd_max_dir,wind_spd_gust,battery_voltage,lat,long
2023-12-14 00:04:00+00:00,221.0,11.28,220.0,12.27,12.41,47.59359,-54.27349
2023-12-14 00:14:00+00:00,215.0,10.53,211.0,11.95,12.41,47.59359,-54.27349
2023-12-14 00:24:00+00:00,212.0,11.98,209.0,13.22,12.41,47.59359,-54.27349
2023-12-14 00:34:00+00:00,218.0,11.08,217.0,12.26,12.41,47.59359,-54.27349
2023-12-14 00:44:00+00:00,214.0,11.09,213.0,12.59,12.41,47.59359,-54.27349
2023-12-14 00:54:00+00:00,223.0,10.45,225.0,11.8,12.41,47.59359,-54.27349
2023-12-14 01:04:00+00:00,220.0,11.16,224.0,13.74,12.41,47.59359,-54.27349
2023-12-14 01:14:00+00:00,221.0,13.4,218.0,15.03,12.33,47.59359,-54.27349
2023-12-14 01:24:00+00:00,220.0,12.07,214.0,14.01,12.33,47.59359,-54.27349
2023-12-14 01:34:00+00:00,223.0,11.95,217.0,13.73,12.33,47.59359,-54.27349
2023-12-14 01:44:00+00:00,217.0,13.62,217.0,15.3,12.33,47.59359,-54.27349
2023-12-14 01:54:00+00:00,216.0,11.3,216.0,13.33,12.33,47.59359,-54.27349
2023-12-14 02:04:00+00:00,214.0,11.84,212.0,14.45,12.33,47.59359,-54.27349
2023-12-14 02:14:00+00:00,214.0,11.86,215.0,13.06,12.33,47.59359,-54.27349
2023-12-14 02:24:00+00:00,217.0,13.11,215.0,14.83,12.33,47.59359,-54.27349
2023-12-14 02:34:00+00:00,215.0,10.86,217.0,12.43,12.33,47.59359,-54.27349
2023-12-14 02:44:00+00:00,213.0,13.87,213.0,15.45,12.33,47.59359,-54.27349
2023-12-14 02:54:00+00:00,215.0,13.17,209.0,15.25,12.33,47.59359,-54.27349
2023-12-14 03:04:00+00:00,213.0,13.52,216.0,16.32,12.33,47.59359,-54.27349
2023-12-14 03:14:01+00:00,212.0,13.53,212.0,15.11,12.33,47.59359,-54.27349
2023-12-14 03:24:01+00:00,215.0,13.63,227.0,15.39,12.33,47.59359,-54.27349
2023-12-14 03:34:01+00:00,224.0,14.37,227.0,17.74,12.33,47.59359,-54.27349
2023-12-14 03:44:01+00:00,237.0,13.13,234.0,15.55,12.33,47.59359,-54.27349
2023-12-14 03:54:01+00:00,238.0,12.66,238.0,15.16,12.33,47.59359,-54.27349
2023-12-14 04:04:01+00:00,231.0,10.4,235.0,13.27,12.33,47.59359,-54.27349
2023-12-14 04:14:00+00:00,227.0,11.22,221.0,12.46,12.33,47.59359,-54.27349
2023-12-14 04:24:00+00:00,227.0,9.79,235.0,11.54,12.33,47.59359,-54.27349
2023-12-14 04:34:00+00:00,235.0,9.11,239.0,10.46,12.33,47.59359,-54.27349
2023-12-14 04:44:00+00:00,249.0,9.54,248.0,10.44,12.33,47.59359,-54.27349
2023-12-14 04:54:00+00:00,258.0,8.72,261.0,10.45,12.33,47.59359,-54.27349
2023-12-14 05:04:00+00:00,253.0,8.37,259.0,9.08,12.33,47.59359,-54.27349
2023-12-14 05:14:00+00:00,260.0,9.08,260.0,11.07,12.25,47.59359,-54.27349
2023-12-14 05:24:00+00:00,249.0,8.83,248.0,9.78,12.25,47.59359,-54.27349
2023-12-14 05:34:00+00:00,259.0,8.59,261.0,9.79,12.25,47.59359,-54.27349
2023-12-14 05:44:00+00:00,270.0,10.1,270.0,11.43,12.25,47.59359,-54.27349
2023-12-14 05:54:00+00:00,295.0,8.7,294.0,10.29,12.25,47.59359,-54.27349
2023-12-14 06:04:00+00:00,294.0,9.33,298.0,11.34,12.25,47.59359,-54.27349
2023-12-14 06:14:00+00:00,281.0,9.58,284.0,10.58,12.25,47.59359,-54.27349
2023-12-14 06:24:00+00:00,271.0,7.44,267.0,10.31,12.25,47.59359,-54.27349
2023-12-14 06:34:00+00:00,263.0,7.16,266.0,9.99,12.25,47.59359,-54.27349
2023-12-14 06:44:00+00:00,256.0,8.29,255.0,10.42,12.25,47.59359,-54.27349
2023-12-14 06:54:00+00:00,256.0,8.97,260.0,10.28,12.25,47.59359,-54.27349
2023-12-14 07:04:00+00:00,248.0,9.05,253.0,10.56,12.25,47.59359,-54.27349
2023-12-14 07:14:01+00:00,248.0,8.96,253.0,10.52,12.25,47.59359,-54.27349
2023-12-14 07:24:01+00:00,243.0,8.47,249.0,10.2,12.25,47.59359,-54.27349
2023-12-14 07:34:01+00:00,241.0,8.72,255.0,9.95,12.25,47.59359,-54.27349
2023-12-14 07:44:01+00:00,242.0,9.16,243.0,10.82,12.25,47.59359,-54.27349
2023-12-14 07:54:01+00:00,315.0,0.01,255.0,0.0,12.25,47.59359,-54.27349
2023-12-14 08:04:01+00:00,252.0,8.34,260.0,10.34,12.25,47.59359,-54.27349
2023-12-14 08:14:00+00:00,255.0,8.7,269.0,10.03,12.25,47.59359,-54.27349
2023-12-14 08:24:00+00:00,254.0,10.51,256.0,11.79,12.25,47.59359,-54.27349
2023-12-14 08:34:00+00:00,253.0,10.24,254.0,12.65,12.25,47.59359,-54.27349
2023-12-14 08:44:00+00:00,274.0,10.58,270.0,11.66,12.25,47.59359,-54.27349
2023-12-14 08:54:00+00:00,295.0,10.68,290.0,11.81,12.25,47.59359,-54.27349
2023-12-14 09:04:00+00:00,296.0,12.03,301.0,13.69,12.25,47.59359,-54.27349
2023-12-14 09:14:00+00:00,290.0,11.55,294.0,14.13,12.17,47.59359,-54.27349
2023-12-14 09:24:00+00:00,292.0,12.29,287.0,13.75,12.17,47.59359,-54.27349
2023-12-14 09:34:00+00:00,292.0,11.18,290.0,13.17,12.17,47.59359,-54.27349
2023-12-14 09:44:00+00:00,291.0,9.7,287.0,12.19,12.17,47.59359,-54.27349
2023-12-14 09:54:00+00:00,304.0,10.17,306.0,12.01,12.17,47.59359,-54.27349
2023-12-14 10:04:00+00:00,296.0,8.61,296.0,10.21,12.17,47.59359,-54.27349
2023-12-14 10:14:00+00:00,298.0,8.51,289.0,10.17,12.17,47.59359,-54.27349
2023-12-14 10:24:00+00:00,299.0,6.96,293.0,8.21,12.17,47.59359,-54.27349
2023-12-14 10:34:00+00:00,293.0,9.57,292.0,11.99,12.17,47.59359,-54.27349
2023-12-14 10:44:00+00:00,295.0,7.87,299.0,9.67,12.17,47.59359,-54.27349
2023-12-14 10:54:00+00:00,290.0,8.3,292.0,9.3,12.17,47.59359,-54.27349
2023-12-14 11:04:00+00:00,290.0,8.1,290.0,9.12,12.17,47.59359,-54.27349
2023-12-14 11:14:00+00:00,291.0,5.44,290.0,6.37,12.17,47.59359,-54.27349
2023-12-14 11:24:00+00:00,282.0,6.46,278.0,8.03,12.17,47.59359,-54.27349
2023-12-14 11:34:00+00:00,283.0,5.71,296.0,7.15,12.17,47.59359,-54.27349
2023-12-14 11:44:00+00:00,283.0,5.53,285.0,6.71,12.17,47.59359,-54.27349
2023-12-14 11:54:00+00:00,293.0,5.56,301.0,6.85,12.17,47.59359,-54.27349
2023-12-14 12:04:00+00:00,287.0,4.68,286.0,5.25,12.17,47.59359,-54.27349
2023-12-14 12:14:00+00:00,297.0,4.68,293.0,5.52,12.33,47.59359,-54.27349
2023-12-14 12:24:00+00:00,300.0,5.08,308.0,6.47,12.33,47.59359,-54.27349
2023-12-14 12:34:00+00:00,297.0,7.88,286.0,10.39,12.33,47.59359,-54.27349
2023-12-14 12:44:00+00:00,300.0,8.02,294.0,9.6,12.33,47.59359,-54.27349
2023-12-14 12:54:00+00:00,308.0,7.81,308.0,9.4,12.33,47.59359,-54.27349
2023-12-14 13:04:00+00:00,295.0,10.49,292.0,14.7,12.33,47.59359,-54.27349
2023-12-14 13:14:00+00:00,298.0,8.28,298.0,10.26,13.44,47.59359,-54.27349
2023-12-14 13:24:00+00:00,281.0,9.81,279.0,14.39,13.44,47.59359,-54.27349
2023-12-14 13:34:00+00:00,299.0,7.71,299.0,8.94,13.44,47.59359,-54.27349
2023-12-14 13:44:00+00:00,275.0,9.84,272.0,13.64,13.44,47.59359,-54.27349
2023-12-14 13:54:00+00:00,288.0,9.75,277.0,14.04,13.44,47.59359,-54.27349
2023-12-14 14:04:00+00:00,283.0,11.8,284.0,14.55,13.44,47.59359,-54.27349
2023-12-14 14:14:00+00:00,294.0,8.31,297.0,9.3,13.37,47.59359,-54.27349
2023-12-14 14:24:00+00:00,278.0,12.08,282.0,14.33,13.37,47.59359,-54.27349
2023-12-14 14:34:00+00:00,283.0,12.56,287.0,14.99,13.37,47.59359,-54.27349
2023-12-14 14:44:00+00:00,279.0,11.98,280.0,14.27,13.37,47.59359,-54.27349
2023-12-14 14:54:00+00:00,279.0,12.47,281.0,14.4,13.37,47.59359,-54.27349
2023-12-14 15:04:00+00:00,293.0,12.72,299.0,15.91,13.37,47.59359,-54.27349
2023-12-14 15:14:00+00:00,280.0,12.47,279.0,14.12,13.53,47.59359,-54.27349
2023-12-14 15:24:00+00:00,273.0,12.85,265.0,14.72,13.53,47.59359,-54.27349
2023-12-14 15:34:00+00:00,287.0,12.49,293.0,15.26,13.53,47.59359,-54.27349
2023-12-14 15:44:00+00:00,287.0,9.55,288.0,14.35,13.53,47.59359,-54.27349
2023-12-14 15:54:00+00:00,280.0,9.85,282.0,13.6,13.53,47.59359,-54.27349
2023-12-14 16:04:00+00:00,276.0,10.55,270.0,14.11,13.53,47.59359,-54.27349
2023-12-14 16:14:00+00:00,273.0,12.71,271.0,13.93,13.92,47.59359,-54.27349
2023-12-14 16:24:00+00:00,272.0,12.09,277.0,13.78,13.92,47.59359,-54.27349
2023-12-14 16:34:00+00:00,272.0,11.46,272.0,14.16,13.92,47.59359,-54.27349
2023-12-14 16:44:00+00:00,291.0,11.27,288.0,14.97,13.92,47.59359,-54.27349
2023-12-14 16:54:00+00:00,290.0,10.59,289.0,14.46,13.92,47.59359,-54.27349
2023-12-14 17:04:00+00:00,282.0,8.19,284.0,11.59,13.92,47.59359,-54.27349
2023-12-14 17:14:00+00:00,289.0,9.32,289.0,14.94,14.0,47.59359,-54.27349
2023-12-14 17:24:00+00:00,270.0,12.24,268.0,14.08,14.0,47.59359,-54.27349
2023-12-14 17:34:00+00:00,272.0,12.15,278.0,14.34,14.0,47.59359,-54.27349
2023-12-14 17:44:00+00:00,282.0,12.81,280.0,14.63,14.0,47.59359,-54.27349
2023-12-14 17:54:00+00:00,282.0,12.73,284.0,14.94,14.0,47.59359,-54.27349
2023-12-14 18:04:00+00:00,275.0,11.23,279.0,13.83,14.0,47.59359,-54.27349
2023-12-14 18:14:00+00:00,275.0,11.95,274.0,14.05,13.6,47.59359,-54.27349
2023-12-14 18:24:00+00:00,273.0,12.12,279.0,14.28,13.6,47.59359,-54.27349
2023-12-14 18:34:00+00:00,279.0,10.83,280.0,14.07,13.6,47.59359,-54.27349
2023-12-14 18:44:00+00:00,277.0,13.19,278.0,14.51,13.6,47.59359,-54.27349
2023-12-14 18:54:00+00:00,304.0,10.71,300.0,15.46,13.6,47.59359,-54.27349
2023-12-14 19:04:00+00:00,306.0,9.9,302.0,13.28,13.6,47.59359,-54.27349
2023-12-14 19:14:00+00:00,299.0,9.66,291.0,14.91,13.21,47.59359,-54.27349
2023-12-14 19:24:00+00:00,282.0,8.97,273.0,13.17,13.21,47.59359,-54.27349
2023-12-14 19:34:00+00:00,291.0,9.09,289.0,12.69,13.21,47.59359,-54.27349
2023-12-14 19:44:00+00:00,279.0,11.74,280.0,14.38,13.21,47.59359,-54.27349
2023-12-14 19:54:00+00:00,272.0,11.51,272.0,14.31,13.21,47.59359,-54.27349
2023-12-14 20:04:00+00:00,279.0,12.39,288.0,14.71,13.21,47.59359,-54.27349
2023-12-14 20:14:00+00:00,277.0,11.96,283.0,14.15,12.57,47.59359,-54.27349
2023-12-14 20:24:00+00:00,284.0,12.54,289.0,15.02,12.57,47.59359,-54.27349
2023-12-14 20:34:00+00:00,277.0,12.37,281.0,14.45,12.57,47.59359,-54.27349
2023-12-14 20:44:00+00:00,293.0,12.09,292.0,14.93,12.57,47.59359,-54.27349
2023-12-14 20:54:00+00:00,295.0,9.26,290.0,14.48,12.57,47.59359,-54.27349
2023-12-14 21:04:00+00:00,302.0,10.74,292.0,14.76,12.57,47.59359,-54.27349
2023-12-14 21:14:00+00:00,289.0,10.74,285.0,14.11,12.41,47.59359,-54.27349
2023-12-14 21:24:00+00:00,286.0,10.49,291.0,14.69,12.41,47.59359,-54.27349
2023-12-14 21:34:00+00:00,288.0,8.63,293.0,14.77,12.41,47.59359,-54.27349
2023-12-14 21:44:00+00:00,291.0,12.42,293.0,15.08,12.41,47.59359,-54.27349
2023-12-14 21:54:00+00:00,282.0,12.66,281.0,14.9,12.41,47.59359,-54.27349
2023-12-14 22:04:00+00:00,287.0,13.6,292.0,15.26,12.41,47.59359,-54.27349
2023-12-14 22:14:00+00:00,286.0,7.33,294.0,8.65,12.33,47.59359,-54.27349
2023-12-14 22:24:00+00:00,284.0,8.3,279.0,13.02,12.33,47.59359,-54.27349
2023-12-14 22:34:00+00:00,285.0,11.04,282.0,14.08,12.33,47.59359,-54.27349
2023-12-14 22:44:00+00:00,295.0,10.15,285.0,14.26,12.33,47.59359,-54.27349
2023-12-14 22:54:00+00:00,291.0,11.45,291.0,15.31,12.33,47.59359,-54.27349
2023-12-14 23:04:00+00:00,302.0,8.88,304.0,11.85,12.33,47.59359,-54.27349
2023-12-14 23:14:00+00:00,290.0,11.48,291.0,14.96,12.33,47.59359,-54.27349
2023-12-14 23:24:00+00:00,300.0,10.63,294.0,14.75,12.33,47.59359,-54.27349
2023-12-14 23:34:00+00:00,299.0,8.28,310.0,10.23,12.33,47.59359,-54.27349
2023-12-14 23:44:00+00:00,295.0,7.55,300.0,9.45,12.33,47.59359,-54.27349
2023-12-14 23:54:00+00:00,291.0,8.33,281.0,11.76,12.33,47.59359,-54.27349
